GW3994 Weather Reports


time (UTC)temp
C
wind
direction
speed
KPH
gust
KPH
rain 1hr
cm
rain 24hr
cm
rain mn
cm
humidity
%
barometer
mb
20260502222009 -17 318 3.2 3.2 0.00 0.00 0.00 1018.2
20260502221504 -17 318 3.2 3.2 0.00 0.00 0.00 1018.2
20260502221002 -17 318 3.2 3.2 0.00 0.00 0.00 1018.2
20260502220457 -17 318 3.2 3.2 0.00 0.00 0.00 1018.2
20260502215954 -17 318 3.2 3.2 0.00 0.00 0.00 1018.2
20260502215451 -17 318 4.8 4.8 0.00 0.00 0.00 1018.2
20260502214948 -17 318 0.0 0.0 0.00 0.00 0.00 1018.2
20260502214445 -17 318 0.0 0.0 0.00 0.00 0.00 1017.7
20260502213942 -17 318 6.4 6.4 0.00 0.00 0.00 1017.7
20260502213439 -17 318 6.4 6.4 0.00 0.00 0.00 1017.7
20260502212937 -17 318 6.4 6.4 0.00 0.00 0.00 1017.7
20260502212436 -17 318 0.0 0.0 0.00 0.00 0.00 1017.7
20260502211933 -17 318 3.2 3.2 0.00 0.00 0.00 1017.7
20260502211429 -17 12 3.2 3.2 0.00 0.00 0.00 1018.2
20260502210926 -17 67 8.0 9.7 0.00 0.00 0.00 1018.2
20260502210423 -17 10 3.2 3.2 0.00 0.00 0.00 1018.2
20260502205920 -17 338 4.8 4.8 0.00 0.00 0.00 1018.2
20260502205416 -17 342 9.7 9.7 0.00 0.00 0.00 1018.2
20260502204914 -17 96 6.4 6.4 0.00 0.00 0.00 1018.2
20260502204410 -17 126 3.2 3.2 0.00 0.00 0.00 1018.2
20260502203908 -17 18 9.7 9.7 0.00 0.00 0.00 1018.2
20260502203405 -17 292 6.4 6.4 0.00 0.00 0.00 1018.2
20260502202901 -17 236 6.4 6.4 0.00 0.00 0.00 1018.2
20260502202358 -17 336 4.8 4.8 0.00 0.00 0.00 1018.2
20260502201856 -17 12 8.0 8.0 0.00 0.00 0.00 1018.2
20260502201352 -17 120 4.8 4.8 0.00 0.00 0.00 1018.5
20260502200849 -17 95 6.4 6.4 0.00 0.00 0.00 1018.5
20260502200344 -17 18 6.4 6.4 0.00 0.00 0.00 1018.5
20260502195843 -17 248 3.2 3.2 0.00 0.00 0.00 1018.8
20260502195339 -17 276 1.6 1.6 0.00 0.00 0.00 1018.8
20260502194836 -17 276 6.4 6.4 0.00 0.00 0.00 1018.8
20260502194332 -17 276 3.2 3.2 0.00 0.00 0.00 1018.5
20260502193828 -17 276 0.0 0.0 0.00 0.00 0.00 1018.5
20260502193326 -17 276 4.8 4.8 0.00 0.00 0.00 1018.5
20260502192821 -17 276 3.2 3.2 0.00 0.00 0.00 1018.8
20260502192318 -17 276 4.8 6.4 0.00 0.00 0.00 1018.8
20260502191816 -17 276 3.2 3.2 0.00 0.00 0.00 1018.8
20260502191314 -17 312 3.2 3.2 0.00 0.00 0.00 1018.8
20260502190811 -17 6 3.2 3.2 0.00 0.00 0.00 1018.8
20260502190308 -17 12 0.0 0.0 0.00 0.00 0.00 1018.8
20260502185803 -17 342 1.6 1.6 0.00 0.00 0.00 1018.8
20260502185259 -17 324 0.0 0.0 0.00 0.00 0.00 1018.8
20260502184756 -17 16 3.2 3.2 0.00 0.00 0.00 1018.8
20260502184251 -17 352 6.4 6.4 0.00 0.00 0.00 1018.8
20260502183748 -17 36 0.0 0.0 0.00 0.00 0.00 1018.8
20260502183245 -17 90 0.0 0.0 0.00 0.00 0.00 1018.8
20260502182740 -17 236 1.6 1.6 0.00 0.00 0.00 1018.8
20260502182235 -17 198 8.0 9.7 0.00 0.00 0.00 1018.8
20260502181732 -17 154 3.2 3.2 0.00 0.00 0.00 1018.8
20260502181231 -17 265 9.7 9.7 0.00 0.00 0.00 1019.2
20260502180728 -17 337 3.2 3.2 0.00 0.00 0.00 1019.2
20260502180226 -17 18 4.8 4.8 0.00 0.00 0.00 1019.2
20260502170149 -17 0.0 0.0 0.00 0.00 0.00 1019.5
20260502164136 -17 0 3.2 3.2 0.00 0.00 0.00 1019.9
20260502163632 -17 0 3.2 3.2 0.00 0.00 0.00 1019.9
20260502163129 -17 0 3.2 3.2 0.00 0.00 0.00 1019.9
20260502162625 -17 0 4.8 4.8 0.00 0.00 0.00 1019.5
20260502162123 -17 0 4.8 4.8 0.00 0.00 0.00 1019.5
20260502161620 -17 0 8.0 8.0 0.00 0.00 0.00 1019.5
20260502161117 -17 0 8.0 8.0 0.00 0.00 0.00 1019.5
20260502160615 -17 0 6.4 6.4 0.00 0.00 0.00 1019.5
20260502160113 -17 0 3.2 3.2 0.00 0.00 0.00 1019.5
20260502152028 -17 0 6.4 6.4 0.00 0.00 0.00 1019.2
20260502151524 -17 0 9.7 9.7 0.00 0.00 0.00 1019.2
20260502151022 -17 0 3.2 3.2 0.00 0.00 0.00 1019.2
20260502150519 -17 0 4.8 4.8 0.00 0.00 0.00 1019.2
20260502130347 -17 0 6.4 6.4 0.00 0.00 0.00 1018.5
20260502123330 -17 0.0 0.0 0.00 0.00 0.00 1015.7
20260502122827 -17 0.0 0.0 0.00 0.00 0.00 1015.7
20260502122322 -17 0.0 0.0 0.00 0.00 0.00 1015.7
20260502121821 -17 0.0 0.0 0.00 0.00 0.00 1015.7
20260502121318 -17 0.0 0.0 0.00 0.00 0.00 1015.7
20260502120815 -17 0.0 0.0 0.00 0.00 0.00 1015.7
20260502120311 -17 0.0 0.0 0.00 0.00 0.00 1015.7
20260502115809 -17 0.0 0.0 0.00 0.00 0.00 1015.7
20260502115306 -17 0.0 0.0 0.00 0.00 0.00 1015.7
20260502114802 -17 0.0 0.0 0.00 0.00 0.00 1015.7
20260502114259 -17 0.0 0.0 0.00 0.00 0.00 1015.7
20260502113756 -17 0.0 0.0 0.00 0.00 0.00 1015.7
20260502113254 -17 0.0 0.0 0.00 0.00 0.00 1015.7
20260502112752 -17 0.0 0.0 0.00 0.00 0.00 1015.7
20260502112249 -17 0.0 0.0 0.00 0.00 0.00 1015.7
20260502111746 -17 0.0 0.0 0.00 0.00 0.00 1015.7
20260502111243 -17 0.0 0.0 0.00 0.00 0.00 1015.7
20260502110741 -17 0.0 0.0 0.00 0.00 0.00 1015.7
20260502110238 -17 0.0 0.0 0.00 0.00 0.00 1015.7
20260502105737 -17 0.0 0.0 0.00 0.00 0.00 1015.7
20260502105232 -17 0.0 0.0 0.00 0.00 0.00 1015.7
20260502104731 -17 0.0 0.0 0.00 0.00 0.00 1015.7
20260502104228 -17 0.0 0.0 0.00 0.00 0.00 1015.7
20260502103725 -17 0.0 0.0 0.00 0.00 0.00 1015.7
20260502103223 -17 0.0 0.0 0.00 0.00 0.00 1015.7
20260502102719 -17 0.0 0.0 0.00 0.00 0.00 1015.7
20260502102216 -17 0.0 0.0 0.00 0.00 0.00 1015.7
20260502101714 -17 0.0 0.0 0.00 0.00 0.00 1015.7
20260502101212 -17 0.0 0.0 0.00 0.00 0.00 1015.7
20260502100710 -17 0.0 0.0 0.00 0.00 0.00 1015.7
20260502100208 -17 0.0 0.0 0.00 0.00 0.00 1015.7
20260502091142 -17 0.0 0.0 0.00 0.00 0.00 1015.7
20260502090639 -17 0.0 0.0 0.00 0.00 0.00 1015.7
20260502090136 -17 0.0 0.0 0.00 0.00 0.00 1015.7
20260502071528 -17 0.0 0.0 0.00 0.00 0.00 1015.7
20260502071026 -17 0.0 0.0 0.00 0.00 0.00 1015.7
20260502070524 -17 0.0 0.0 0.00 0.00 0.00 1015.7
20260502070022 -17 0.0 0.0 0.00 0.00 0.00 1015.7
20260502065520 -17 0.0 0.0 0.00 0.00 0.00 1015.7
20260502065017 -17 0.0 0.0 0.00 0.00 0.00 1015.7
20260502064516 -17 0.0 0.0 0.00 0.00 0.00 1015.7
20260502064012 -17 0.0 0.0 0.00 0.00 0.00 1015.7
20260502063510 -17 0.0 0.0 0.00 0.00 0.00 1015.7
20260502063008 -17 0.0 0.0 0.00 0.00 0.00 1015.7
20260502062504 -17 0.0 0.0 0.00 0.00 0.00 1015.7
20260502062003 -17 0.0 0.0 0.00 0.00 0.00 1015.7
20260502061500 -17 0.0 0.0 0.00 0.00 0.00 1015.7
20260502060956 -17 0.0 0.0 0.00 0.00 0.00 1015.7
20260502060452 -17 0.0 0.0 0.00 0.00 0.00 1015.7
20260502055949 -17 0.0 0.0 0.00 0.00 0.00 1015.7
20260502055446 -17 0.0 0.0 0.00 0.00 0.00 1015.7
20260502054941 -17 0.0 0.0 0.00 0.00 0.00 1015.7
20260502054438 -17 0.0 0.0 0.00 0.00 0.00 1015.7
20260502053935 -17 0.0 0.0 0.00 0.00 0.00 1015.7
20260502053432 -17 0.0 0.0 0.00 0.00 0.00 1015.7
20260502052930 -17 0.0 0.0 0.00 0.00 0.00 1015.7
20260502052428 -17 0.0 0.0 0.00 0.00 0.00 1015.7
20260502051926 -17 0.0 0.0 0.00 0.00 0.00 1015.7
20260502051424 -17 0.0 0.0 0.00 0.00 0.00 1015.7
20260502050921 -17 0.0 0.0 0.00 0.00 0.00 1015.7
20260502050417 -17 0.0 0.0 0.00 0.00 0.00 1015.7
20260502045915 -17 0.0 0.0 0.00 0.00 0.00 1015.7
20260502045411 -17 0.0 0.0 0.00 0.00 0.00 1015.7
20260502044908 -17 0.0 0.0 0.00 0.00 0.00 1015.7
20260502044403 -17 0.0 0.0 0.00 0.00 0.00 1015.7
20260502043901 -17 0.0 0.0 0.00 0.00 0.00 1015.7
20260502043359 -17 0.0 0.0 0.00 0.00 0.00 1015.7
20260502042858 -17 0.0 0.0 0.00 0.00 0.00 1015.7
20260502042355 -17 0.0 0.0 0.00 0.00 0.00 1015.7
20260502041853 -17 0.0 0.0 0.00 0.00 0.00 1015.7
20260502041350 -17 0.0 0.0 0.00 0.00 0.00 1015.7
20260502040847 -17 0.0 0.0 0.00 0.00 0.00 1015.7
20260502040344 -17 0.0 0.0 0.00 0.00 0.00 1015.7
20260502035840 -17 0.0 0.0 0.00 0.00 0.00 1015.7
20260502035337 -17 0.0 0.0 0.00 0.00 0.00 1015.7
20260502034834 -17 0.0 0.0 0.00 0.00 0.00 1015.7
20260502034333 -17 0.0 0.0 0.00 0.00 0.00 1015.7
20260502033831 -17 0.0 0.0 0.00 0.00 0.00 1015.7
20260502033328 -17 0.0 0.0 0.00 0.00 0.00 1015.7
20260502032825 -17 0.0 0.0 0.00 0.00 0.00 1015.7
20260502032320 -17 0.0 0.0 0.00 0.00 0.00 1015.7
20260502031818 -17 0.0 0.0 0.00 0.00 0.00 1015.7
20260502031316 -17 0.0 0.0 0.00 0.00 0.00 1015.7
20260502030815 -17 0.0 0.0 0.00 0.00 0.00 1015.7
20260502030312 -17 0.0 0.0 0.00 0.00 0.00 1015.7
20260502025809 -17 0.0 0.0 0.00 0.00 0.00 1015.7
20260502025307 -17 0.0 0.0 0.00 0.00 0.00 1015.7
20260502024805 -17 0.0 0.0 0.00 0.00 0.00 1015.7
20260502024302 -17 0.0 0.0 0.00 0.00 0.00 1015.7
20260502023800 -17 0.0 0.0 0.00 0.00 0.00 1015.7
20260502023258 -17 0.0 0.0 0.00 0.00 0.00 1015.7
20260502022755 -17 0.0 0.0 0.00 0.00 0.00 1015.7
20260502022251 -17 0.0 0.0 0.00 0.00 0.00 1015.7
20260502021748 -17 0.0 0.0 0.00 0.00 0.00 1015.7
20260502021246 -17 0.0 0.0 0.00 0.00 0.00 1015.7
20260502020743 -17 0.0 0.0 0.00 0.00 0.00 1015.7
20260502020240 -17 0.0 0.0 0.00 0.00 0.00 1015.7
20260502015738 -17 0.0 0.0 0.00 0.00 0.00 1015.7
20260502015234 -17 0.0 0.0 0.00 0.00 0.00 1015.7
20260502014732 -17 0.0 0.0 0.00 0.00 0.00 1015.7
20260502014228 -17 0.0 0.0 0.00 0.00 0.00 1015.7
20260502013725 -17 0.0 0.0 0.00 0.00 0.00 1015.7
20260502013220 -17 0.0 0.0 0.00 0.00 0.00 1015.7
20260502012717 -17 0.0 0.0 0.00 0.00 0.00 1015.7
20260502012215 -17 0.0 0.0 0.00 0.00 0.00 1015.7
20260502011712 -17 0.0 0.0 0.00 0.00 0.00 1015.7
20260502011208 -17 0.0 0.0 0.00 0.00 0.00 1015.7
20260502010706 -17 0.0 0.0 0.00 0.00 0.00 1015.7
20260502010201 -17 0.0 0.0 0.00 0.00 0.00 1015.7
20260502005659 -17 0.0 0.0 0.00 0.00 0.00 1015.7
20260502005156 -17 0.0 0.0 0.00 0.00 0.00 1015.7
20260502004652 -17 0.0 0.0 0.00 0.00 0.00 1015.7
20260502004149 -17 0.0 0.0 0.00 0.00 0.00 1015.7
20260502003647 -17 0.0 0.0 0.00 0.00 0.00 1015.7
20260502003144 -17 0.0 0.0 0.00 0.00 0.00 1015.7
20260502002640 -17 0.0 0.0 0.00 0.00 0.00 1015.7
20260502002138 -17 0.0 0.0 0.00 0.00 0.00 1015.7
20260502001635 -17 0.0 0.0 0.00 0.00 0.00 1015.7
20260502001132 -17 0.0 0.0 0.00 0.00 0.00 1015.7
20260502000630 -17 0.0 0.0 0.00 0.00 0.00 1015.7
20260502000127 -17 0.0 0.0 0.00 0.00 0.00 1015.7
20260501235623 -17 0.0 0.0 0.00 0.00 0.00 1015.7
20260501235120 -17 0.0 0.0 0.00 0.00 0.00 1015.7
20260501234615 -17 0.0 0.0 0.00 0.00 0.00 1015.7
20260501234113 -17 0.0 0.0 0.00 0.00 0.00 1015.7
20260501233611 -17 0.0 0.0 0.00 0.00 0.00 1015.7
20260501233108 -17 0.0 0.0 0.00 0.00 0.00 1015.7
20260501232604 -17 252 0.0 0.0 0.00 0.23 0.23 1016.0
20260501232101 -17 252 0.0 0.0 0.00 0.23 0.23 1016.0
20260501231559 -17 252 0.0 0.0 0.00 0.23 0.23 1016.0
20260501231057 -17 252 0.0 0.0 0.00 0.23 0.23 1016.0
20260501230555 -17 252 0.0 0.0 0.00 0.23 0.23 1016.0
20260501230053 -17 252 0.0 0.0 0.00 0.23 0.23 1016.0
20260501225550 -17 252 3.2 3.2 0.00 0.23 0.23 1016.0
20260501225046 -17 252 0.0 0.0 0.00 0.23 0.23 1016.0
20260501224544 -17 252 6.4 6.4 0.00 0.23 0.23 1016.0
20260501224041 -17 252 0.0 0.0 0.00 0.23 0.23 1016.0
20260501223537 -17 252 3.2 3.2 0.00 0.23 0.23 1016.0
20260501223033 -17 252 0.0 0.0 0.00 0.23 0.23 1015.7
20260501222530 -17 18 3.2 3.2 0.00 0.23 0.23 1015.7